FW6626 Weather Reports


time (UTC)temp
C
wind
direction
speed
KPH
gust
KPH
rain 1hr
cm
rain 24hr
cm
rain mn
cm
humidity
%
barometer
mb
20260905184606 24 257 6.4 16.1 0.00 0.00 0.00 67 1014.6
20260905183107 24 360 6.4 16.1 0.00 0.00 0.00 67 1014.9
20260905181555 23 250 9.7 19.3 0.00 0.00 0.00 70 1014.9
20260905180100 23 240 8.0 12.9 0.00 0.00 0.00 68 1014.9
20260905174606 23 254 4.8 12.9 0.00 0.00 0.00 65 1014.7
20260905173102 23 290 6.4 11.3 0.00 0.00 0.00 64 1014.5
20260905171635 24 248 3.2 8.0 0.00 0.00 0.00 60 1014.5
20260905170105 23 254 1.6 9.7 0.00 0.00 0.00 60 1014.4
20260905164556 25 253 1.6 6.4 0.00 0.00 0.00 58 1014.4
20260905163056 24 263 3.2 8.0 0.00 0.00 0.00 61 1014.3
20260905161558 24 236 1.6 6.4 0.00 0.00 0.00 59 1014.3
20260905160107 26 112 3.2 14.5 0.00 0.00 0.00 56 1014.3
20260905154620 24 87 1.6 6.4 0.00 0.00 0.00 65 1014.3
20260905153053 21 51 0.0 4.8 0.00 0.00 0.00 68 1014.2
20260905151601 23 55 1.6 4.8 0.00 0.00 0.00 65 1014.2
20260905150105 22 55 1.6 6.4 0.00 0.00 0.00 67 1014.0
20260905144556 22 0 0.0 3.2 0.00 0.00 0.00 66 1014.0
20260905143102 21 5 1.6 4.8 0.00 0.00 0.00 72 1013.9
20260905141557 20 5 0.0 3.2 0.00 0.00 0.00 78 1013.5
20260905140057 18 0 0.0 4.8 0.00 0.00 0.00 84 1013.5
20260905134602 16 5 1.6 6.4 0.00 0.00 0.00 86 1013.2
20260905133056 16 9 1.6 6.4 0.00 0.00 0.00 86 1012.9
20260905131555 16 352 1.6 6.4 0.00 0.00 0.00 86 1012.9
20260905130101 16 348 1.6 6.4 0.00 0.00 0.00 86 1013.0
20260905124558 16 360 1.6 4.8 0.00 0.00 0.00 86 1013.1
20260905123056 16 5 1.6 6.4 0.00 0.00 0.00 86 1013.1
20260905121600 16 15 3.2 6.4 0.00 0.00 0.00 86 1013.1
20260905120059 16 12 1.6 4.8 0.00 0.00 0.00 86 1013.1
20260905114607 16 0 3.2 6.4 0.00 0.00 0.00 86 1013.0
20260905113054 16 5 0.0 4.8 0.00 0.00 0.00 86 1013.1
20260905111622 16 0 0.0 4.8 0.00 0.00 0.00 86 1013.2
20260905110106 16 360 1.6 4.8 0.00 0.00 0.00 86 1013.3
20260905104619 16 343 0.0 6.4 0.00 0.00 0.00 86 1013.3
20260905103056 16 338 0.0 3.2 0.00 0.00 0.00 86 1013.3
20260905101554 17 338 1.6 4.8 0.00 0.00 0.00 86 1013.3
20260905100056 17 323 1.6 4.8 0.00 0.00 0.00 86 1013.4
20260905094715 17 0 0.0 3.2 0.00 0.00 0.00 86 1013.4
20260905093126 17 0 1.6 3.2 0.00 0.00 0.00 86 1013.4
20260905091602 17 284 1.6 3.2 0.00 0.00 0.00 86 1013.5
20260905090052 17 0 0.0 3.2 0.00 0.00 0.00 86 1013.5
20260905084605 17 284 1.6 4.8 0.00 0.00 0.00 86 1013.6
20260905083056 17 283 0.0 4.8 0.00 0.00 0.00 85 1013.8
20260905081557 17 259 1.6 3.2 0.00 0.00 0.00 86 1014.0
20260905080107 17 259 0.0 1.6 0.00 0.00 0.00 86 1014.3
20260905074602 17 259 1.6 3.2 0.00 0.00 0.00 85 1014.2
20260905073110 18 0 0.0 3.2 0.00 0.00 0.00 85 1014.1
20260905071556 18 0 0.0 0.0 0.00 0.00 0.00 85 1014.3
20260905070057 18 0 0.0 1.6 0.00 0.00 0.00 85 1014.3
20260905064553 18 0 0.0 0.0 0.00 0.00 0.00 85 1014.3
20260905063058 18 0 0.0 0.0 0.00 0.00 0.00 85 1014.4
20260905061605 18 0 0.0 0.0 0.00 0.00 0.00 84 1014.2
20260905060107 18 0 0.0 1.6 0.00 0.00 0.00 84 1014.1
20260905054607 18 0 0.0 0.0 0.00 0.00 0.00 84 1014.1
20260905053101 18 0 0.0 0.0 0.00 0.00 0.00 84 1014.1
20260905051610 18 0 0.0 0.0 0.00 0.00 0.00 83 1014.0
20260905050107 18 254 0.0 3.2 0.00 0.00 0.00 83 1014.2
20260905044604 18 0 0.0 1.6 0.00 0.00 0.00 83 1014.1
20260905043059 18 0 0.0 0.0 0.00 0.00 0.00 83 1013.9
20260905041610 18 0 0.0 0.0 0.00 0.00 0.00 82 1013.6
20260905040108 18 0 0.0 3.2 0.00 0.00 0.00 82 1013.6
20260905034606 18 0 0.0 3.2 0.00 0.00 0.00 81 1013.5
20260905033106 19 0 1.6 4.8 0.00 0.00 0.00 81 1013.3
20260905031554 19 253 1.6 6.4 0.00 0.00 0.00 80 1013.2
20260905030111 20 262 1.6 6.4 0.00 0.00 0.00 80 1013.0
20260905024606 20 255 3.2 6.4 0.00 0.00 0.00 79 1012.9
20260905023058 20 261 3.2 8.0 0.00 0.00 0.00 78 1012.9
20260905021603 20 259 3.2 8.0 0.00 0.00 0.00 77 1013.0
20260905020059 20 250 3.2 6.4 0.00 0.00 0.00 76 1013.0
20260905014557 21 274 4.8 11.3 0.00 0.00 0.00 75 1012.7
20260905013116 21 360 4.8 12.9 0.00 0.00 0.00 72 1012.7
20260905011606 22 0 4.8 14.5 0.00 0.00 0.00 71 1012.8
20260905010106 23 247 4.8 14.5 0.00 0.00 0.00 69 1012.7
20260905004600 23 248 3.2 12.9 0.00 0.00 0.00 69 1013.0
20260905003101 23 229 6.4 14.5 0.00 0.00 0.00 69 1013.1
20260905001553 22 269 9.7 16.1 0.00 0.00 0.00 70 1013.1
20260905000059 23 250 6.4 17.7 0.00 0.00 0.00 69 1013.0
20260904234555 23 252 6.4 16.1 0.00 0.00 0.00 68 1013.1
20260904233055 23 251 8.0 14.5 0.00 0.00 0.00 69 1013.1
20260904231552 24 360 4.8 16.1 0.00 0.00 0.00 68 1013.1
20260904230108 23 224 8.0 20.9 0.00 0.00 0.00 68 1013.3
20260904224615 24 273 4.8 17.7 0.00 0.00 0.00 68 1013.3
20260904223107 23 231 11.3 19.3 0.00 0.00 0.00 66 1013.7
20260904221615 23 257 9.7 20.9 0.00 0.00 0.00 67 1013.6
20260904214555 23 221 9.7 20.9 0.00 0.00 0.00 66 1013.6
20260904213104 24 252 9.7 19.3 0.00 0.00 0.00 66 1013.9
20260904211558 24 250 8.0 17.7 0.00 0.00 0.00 67 1013.8
20260904210100 24 360 8.0 19.3 0.00 0.00 0.00 67 1014.0
20260904204604 24 244 8.0 22.5 0.00 0.00 0.00 67 1014.1
20260904203108 24 360 8.0 20.9 0.00 0.00 0.00 66 1014.0
20260904201616 24 234 8.0 19.3 0.00 0.00 0.00 67 1014.1
20260904200118 23 238 6.4 19.3 0.00 0.00 0.00 66 1014.0
20260904194604 23 231 9.7 17.7 0.00 0.00 0.00 66 1014.1
20260904193100 23 278 4.8 17.7 0.00 0.00 0.00 66 1014.1
20260904191602 23 227 8.0 16.1 0.00 0.00 0.00 65 1014.3